Ely, MN

3:46 PM CDT on May 25, 2017 (GMT -0500)
Ely Municipal

Weather History for KELO - May, 2013

Change the Weather History Date:

Wednesday, May 15, 2013

  Actual Average Record
Temperature  
Mean Temperature 58 °F -  
Max Temperature 71 °F 59 °F 84 °F (1998)
Min Temperature 44 °F 35 °F 24 °F (2004)
Degree Days  
Heating Degree Days 6    
Growing Degree Days 8 (Base 50)    
Moisture  
Dew Point 39 °F    
Average Humidity 51    
Maximum Humidity 87    
Minimum Humidity 23    
Precipitation  
Precipitation 0.00 in - - ()
Sea Level Pressure  
Sea Level Pressure 29.75 in    
Wind  
Wind Speed 12 mph (WNW)    
Max Wind Speed 22 mph    
Max Gust Speed 31 mph    
Visibility 10 miles    
Events Rain    
Averages and records for this station are not official NWS values.
T = Trace of Precipitation, MM = Missing Value Source: NWS Daily Summary

Daily Weather History Graph

Daily Weather History Graph

Search for Another Location

Airport or City:

Trip Planner

Search our weather history database for the weather conditions in past years. The results will help you decide how hot, cold, wet, or windy it might be!

Date:

Astronomy

May. 15, 2013 Rise Set
Actual Time 5:28 AM CDT 8:39 PM CDT
Civil Twilight 4:51 AM CDT 9:16 PM CDT
Nautical Twilight 4:03 AM CDT 10:04 PM CDT
Astronomical Twilight 3:04 AM CDT 11:05 PM CDT
Moon 10:09 AM CDT (5/15) 12:22 AM CDT (5/15)
Length of Visible Light 16h 24m
Length of Day
15h 10m
Waxing Crescent, 27% of the Moon is Illuminated
May 15
Waxing Crescent
May 17
First Quarter
May 24
Full
May 31
Last Quarter
Jun 8
New

Hourly Weather History & Observations

Time (CDT) Temp. Windchill Dew Point Humidity Pressure Visibility Wind Dir Wind Speed Gust Speed Precip Events Conditions
12:13 AM 59.0 °F - 46.4 °F 63% 29.55 in 10.0 mi WNW 21.9 mph 31.1 mph N/A   Clear
12:32 AM 59.0 °F - 46.4 °F 63% 29.57 in 10.0 mi NW 13.8 mph 29.9 mph N/A   Mostly Cloudy
12:53 AM 57.2 °F - 44.6 °F 63% 29.59 in 10.0 mi NW 15.0 mph 24.2 mph N/A   Scattered Clouds
1:13 AM 55.4 °F - 44.6 °F 67% 29.60 in 10.0 mi NW 11.5 mph 21.9 mph N/A   Clear
1:32 AM 55.4 °F - 42.8 °F 63% 29.62 in 10.0 mi WNW 12.7 mph 21.9 mph N/A   Clear
1:53 AM 53.6 °F - 42.8 °F 67% 29.63 in 10.0 mi WNW 13.8 mph 20.7 mph N/A   Clear
2:13 AM 53.6 °F - 42.8 °F 67% 29.64 in 10.0 mi WNW 9.2 mph - N/A   Clear
2:32 AM 51.8 °F - 42.8 °F 71% 29.66 in 10.0 mi WNW 8.1 mph 18.4 mph N/A   Clear
2:53 AM 51.8 °F - 42.8 °F 71% 29.67 in 10.0 mi West 9.2 mph - N/A   Clear
3:13 AM 51.8 °F - 42.8 °F 71% 29.67 in 10.0 mi WNW 9.2 mph 16.1 mph N/A   Clear
3:32 AM 51.8 °F - 42.8 °F 71% 29.68 in 10.0 mi West 12.7 mph - N/A   Clear
3:53 AM 50.0 °F - 42.8 °F 76% 29.69 in 10.0 mi WNW 10.4 mph 18.4 mph N/A   Clear
4:13 AM 50.0 °F - 42.8 °F 76% 29.70 in 10.0 mi West 9.2 mph 16.1 mph N/A   Clear
4:33 AM 48.2 °F - 42.8 °F 82% 29.71 in 10.0 mi WNW 9.2 mph - N/A   Clear
4:53 AM 48.2 °F - 42.8 °F 82% 29.71 in 10.0 mi West 8.1 mph 16.1 mph N/A   Clear
5:12 AM 48.2 °F - 42.8 °F 82% 29.71 in 10.0 mi West 9.2 mph - N/A   Clear
5:33 AM 48.2 °F - 42.8 °F 82% 29.71 in 10.0 mi West 8.1 mph - N/A   Clear
5:52 AM 46.4 °F 42.9 °F 42.8 °F 87% 29.72 in 10.0 mi West 6.9 mph - N/A   Clear
6:13 AM 48.2 °F - 42.8 °F 82% 29.73 in 10.0 mi West 6.9 mph - N/A   Clear
6:33 AM 50.0 °F - 42.8 °F 76% 29.74 in 10.0 mi West 6.9 mph - N/A   Clear
6:52 AM 51.8 °F - 42.8 °F 71% 29.75 in 10.0 mi West 8.1 mph - N/A   Clear
7:13 AM 53.6 °F - 41.0 °F 62% 29.75 in 10.0 mi WNW 10.4 mph - N/A   Clear
7:33 AM 53.6 °F - 39.2 °F 58% 29.76 in 10.0 mi WNW 9.2 mph 16.1 mph N/A   Clear
7:52 AM 55.4 °F - 39.2 °F 54% 29.75 in 10.0 mi WNW 9.2 mph - N/A   Clear
8:13 AM 57.2 °F - 37.4 °F 48% 29.76 in 10.0 mi WNW 9.2 mph 19.6 mph N/A   Clear
8:33 AM 59.0 °F - 37.4 °F 45% 29.77 in 10.0 mi WNW 15.0 mph 19.6 mph N/A   Clear
8:52 AM 60.8 °F - 35.6 °F 39% 29.77 in 10.0 mi WNW 13.8 mph 21.9 mph N/A   Clear
9:13 AM 60.8 °F - 35.6 °F 39% 29.78 in 10.0 mi NW 10.4 mph 18.4 mph N/A   Clear
9:33 AM 62.6 °F - 35.6 °F 37% 29.78 in 10.0 mi WNW 11.5 mph 19.6 mph N/A   Clear
9:53 AM 62.6 °F - 35.6 °F 37% 29.78 in 10.0 mi West 15.0 mph 21.9 mph N/A   Clear
10:12 AM 62.6 °F - 35.6 °F 37% 29.78 in 10.0 mi WNW 10.4 mph 21.9 mph N/A   Clear
10:33 AM 64.4 °F - 35.6 °F 34% 29.78 in 10.0 mi West 13.8 mph 21.9 mph N/A   Clear
10:52 AM 64.4 °F - 35.6 °F 34% 29.78 in 10.0 mi WNW 17.3 mph 25.3 mph N/A   Clear
11:13 AM 66.2 °F - 35.6 °F 32% 29.78 in 10.0 mi NW 13.8 mph 25.3 mph N/A   Clear
11:33 AM 66.2 °F - 35.6 °F 32% 29.78 in 10.0 mi WNW 16.1 mph 24.2 mph N/A   Clear
11:52 AM 68.0 °F - 35.6 °F 30% 29.79 in 10.0 mi West 20.7 mph 29.9 mph N/A   Clear
12:13 PM 68.0 °F - 37.4 °F 33% 29.78 in 10.0 mi West 17.3 mph 24.2 mph N/A   Scattered Clouds
12:33 PM 69.8 °F - 35.6 °F 28% 29.78 in 10.0 mi WNW 16.1 mph 25.3 mph N/A   Scattered Clouds
12:52 PM 69.8 °F - 35.6 °F 28% 29.77 in 10.0 mi West 20.7 mph 29.9 mph N/A   Scattered Clouds
1:13 PM 71.6 °F - 35.6 °F 27% 29.77 in 10.0 mi WNW 10.4 mph 23.0 mph N/A   Mostly Cloudy
1:33 PM 69.8 °F - 33.8 °F 27% 29.77 in 10.0 mi West 13.8 mph 19.6 mph N/A   Scattered Clouds
1:52 PM 71.6 °F - 33.8 °F 25% 29.76 in 10.0 mi WNW 17.3 mph 21.9 mph N/A   Scattered Clouds
2:13 PM 71.6 °F - 32.0 °F 23% 29.76 in 10.0 mi WNW 17.3 mph 27.6 mph N/A   Scattered Clouds
2:33 PM 69.8 °F - 32.0 °F 25% 29.76 in 10.0 mi WNW 16.1 mph 25.3 mph N/A   Scattered Clouds
2:52 PM 69.8 °F - 33.8 °F 27% 29.75 in 10.0 mi WNW 10.4 mph 17.3 mph N/A   Scattered Clouds
3:13 PM 69.8 °F - 32.0 °F 25% 29.75 in 10.0 mi WNW 11.5 mph 17.3 mph N/A   Scattered Clouds
3:33 PM 69.8 °F - 30.2 °F 23% 29.75 in 10.0 mi WNW 15.0 mph 18.4 mph N/A   Scattered Clouds
3:52 PM 69.8 °F - 30.2 °F 23% 29.75 in 10.0 mi NW 11.5 mph 18.4 mph N/A   Mostly Cloudy
4:13 PM 62.6 °F - 41.0 °F 45% 29.79 in 10.0 mi NW 13.8 mph 23.0 mph N/A Rain Light Rain
4:33 PM 60.8 °F - 42.8 °F 52% 29.82 in 10.0 mi WNW 17.3 mph 24.2 mph N/A Rain Light Rain
4:52 PM 60.8 °F - 42.8 °F 52% 29.80 in 10.0 mi WNW 6.9 mph 19.6 mph N/A Rain Light Rain
5:13 PM 66.2 °F - 41.0 °F 40% 29.79 in 10.0 mi WNW 9.2 mph - N/A   Clear
5:32 PM 68.0 °F - 37.4 °F 33% 29.78 in 10.0 mi WNW 8.1 mph - N/A   Scattered Clouds
5:53 PM 66.2 °F - 37.4 °F 35% 29.78 in 10.0 mi WNW 11.5 mph 17.3 mph N/A   Scattered Clouds
6:13 PM 66.2 °F - 37.4 °F 35% 29.78 in 10.0 mi WNW 12.7 mph 18.4 mph N/A   Scattered Clouds
6:32 PM 66.2 °F - 35.6 °F 32% 29.78 in 10.0 mi WNW 10.4 mph 19.6 mph N/A   Scattered Clouds
6:53 PM 66.2 °F - 37.4 °F 35% 29.78 in 10.0 mi WNW 9.2 mph - N/A   Mostly Cloudy
7:13 PM 66.2 °F - 37.4 °F 35% 29.78 in 10.0 mi WNW 5.8 mph 16.1 mph N/A   Scattered Clouds
7:32 PM 66.2 °F - 37.4 °F 35% 29.78 in 10.0 mi West 5.8 mph - N/A   Scattered Clouds
7:53 PM 64.4 °F - 37.4 °F 37% 29.78 in 10.0 mi West 5.8 mph - N/A   Clear
8:13 PM 62.6 °F - 37.4 °F 39% 29.78 in 10.0 mi WSW 4.6 mph - N/A   Clear
8:32 PM 60.8 °F - 39.2 °F 45% 29.79 in 10.0 mi Calm Calm - N/A   Clear
8:53 PM 57.2 °F - 39.2 °F 51% 29.80 in 10.0 mi Calm Calm - N/A   Clear
9:12 PM 55.4 °F - 39.2 °F 54% 29.80 in 10.0 mi Calm Calm - N/A   Clear
9:33 PM 53.6 °F - 39.2 °F 58% 29.81 in 10.0 mi West 3.5 mph - N/A   Clear
9:52 PM 53.6 °F - 39.2 °F 58% 29.81 in 10.0 mi West 3.5 mph - N/A   Clear
10:13 PM 51.8 °F - 39.2 °F 62% 29.81 in 10.0 mi WNW 4.6 mph - N/A   Clear
10:33 PM 51.8 °F - 39.2 °F 62% 29.81 in 10.0 mi West 3.5 mph - N/A   Clear
10:52 PM 48.2 °F - 39.2 °F 71% 29.82 in 10.0 mi WNW 3.5 mph - N/A   Clear
11:13 PM 46.4 °F 45.2 °F 39.2 °F 76% 29.82 in 10.0 mi West 3.5 mph - N/A   Clear
11:32 PM 46.4 °F - 37.4 °F 71% 29.82 in 10.0 mi Calm Calm - N/A   Clear
11:53 PM 44.6 °F 43.1 °F 37.4 °F 76% 29.83 in 10.0 mi WNW 3.5 mph - N/A   Clear